This is the latest recevied weather packets stored in our database for station/object KC3QLX. If no packets are shown the sender has not sent any weather packets the latest 10 day(s).
| Time | Temp. | Humidity | Pressure | Rain* | Wind** | Luminosity | Snow |
|---|---|---|---|---|---|---|---|
| 1778063208 | 17.78° C | 77% | 1007.2 hPa | 0 mm | - | 25 W/m² | - |
| 1778062904 | 17.78° C | 76% | 1007.4 hPa | 0 mm | - | 23 W/m² | - |
| 1778062601 | 17.78° C | 76% | 1007.2 hPa | 0 mm | - | 19 W/m² | - |
| 1778062298 | 17.78° C | 76% | 1007.2 hPa | 0 mm | - | 9 W/m² | - |
| 1778061997 | 17.78° C | 76% | 1007.4 hPa | 0 mm | - | 3 W/m² | - |
| 1778061694 | 17.78° C | 75% | 1007.2 hPa | 0 mm | - | 0 W/m² | - |
| 1778061393 | 17.78° C | 76% | 1007.3 hPa | 0 mm | - | 0 W/m² | - |
| 1778061089 | 17.78° C | 75% | 1007.4 hPa | 0 mm | - | 0 W/m² | - |
| 1778060787 | 17.78° C | 74% | 1007.4 hPa | 0 mm | - | 0 W/m² | - |
| 1778060484 | 17.78° C | 74% | 1007.6 hPa | 0 mm | - | 0 W/m² | - |
| 1778060183 | 17.78° C | 75% | 1007.6 hPa | 0 mm | - | 0 W/m² | - |
| 1778059879 | 17.78° C | 75% | 1007.5 hPa | 0 mm | - | 0 W/m² | - |
| 1778059577 | 17.78° C | 75% | 1007.7 hPa | 0 mm | - | 0 W/m² | - |
| 1778059274 | 17.78° C | 73% | 1007.4 hPa | 0 mm | - | 0 W/m² | - |
| 1778058972 | 17.78° C | 74% | 1007.3 hPa | 0 mm | - | 0 W/m² | - |
| 1778058669 | 17.78° C | 73% | 1007.7 hPa | 0 mm | - | 0 W/m² | - |
| 1778058367 | 17.78° C | 73% | 1007.6 hPa | 0 mm | - | 0 W/m² | - |
| 1778058063 | 17.78° C | 73% | 1007.5 hPa | 0 mm | - | 0 W/m² | - |
| 1778057761 | 17.78° C | 72% | 1007.6 hPa | 0 mm | - | 0 W/m² | - |
| 1778057456 | 18.33° C | 71% | 1007.7 hPa | 0 mm | - | 0 W/m² | - |
| 1778057153 | 18.33° C | 70% | 1007.6 hPa | 0 mm | - | 0 W/m² | - |
| 1778056850 | 18.33° C | 70% | 1007.6 hPa | 0 mm | - | 0 W/m² | - |
| 1778056547 | 18.33° C | 70% | 1007.7 hPa | 0 mm | - | 0 W/m² | - |
| 1778056244 | 17.78° C | 69% | 1007.7 hPa | 0 mm | - | 0 W/m² | - |
| 1778055941 | 17.78° C | 70% | 1007.6 hPa | 0 mm | - | 0 W/m² | - |
* Rain latest hour (hover to see other rain measurements)
** Current wind speed in m/s (hover to see current wind gust speed)